Cambridge, MD

8:33 PM EST on December 11, 2017 (GMT -0500)
Cambridge-Dorchester

Weather History for KCGE - January, 2012

Change the Weather History Date:

Thursday, January 19, 2012

  Actual Average (KESN) Record (KESN)
Temperature  
Mean Temperature 32 °F -  
Max Temperature 41 °F 43 °F 67 °F (1951)
Min Temperature 23 °F 24 °F 4 °F (1957)
Degree Days  
Heating Degree Days 33    
Moisture  
Dew Point 23 °F    
Average Humidity 65    
Maximum Humidity 86    
Minimum Humidity 45    
Precipitation  
Precipitation 0.00 in - - ()
Sea Level Pressure  
Sea Level Pressure 30.13 in    
Wind  
Wind Speed 5 mph (SSE)    
Max Wind Speed 14 mph    
Max Gust Speed 21 mph    
Visibility 10 miles    
Events      
Averages and records for this station are not official NWS values.
T = Trace of Precipitation, MM = Missing Value Source: NWS Daily Summary

Daily Weather History Graph

Daily Weather History Graph

Search for Another Location

Airport or City:

Trip Planner

Search our weather history database for the weather conditions in past years. The results will help you decide how hot, cold, wet, or windy it might be!

Date:

Astronomy

Jan. 19, 2012 Rise Set
Actual Time 7:18 AM EST 5:10 PM EST
Civil Twilight 6:50 AM EST 5:39 PM EST
Nautical Twilight 6:17 AM EST 6:12 PM EST
Astronomical Twilight 5:45 AM EST 6:43 PM EST
Moon 3:52 AM EST (1/19) 1:41 PM EST (1/19)
Length of Visible Light 10h 49m
Length of Day
9h 52m
Waning Crescent, 16% of the Moon is Illuminated
Jan 19
Waning Crescent
Jan 23
New
Jan 30
First Quarter
Feb 7
Full
Feb 14
Last Quarter

Hourly Weather History & Observations

Time (EST) Temp. Windchill Dew Point Humidity Pressure Visibility Wind Dir Wind Speed Gust Speed Precip Events Conditions
3:00 AM 32.0 °F 24.8 °F 19.4 °F 60% 30.16 in 10.0 mi North 8.1 mph - N/A   Clear
3:19 AM 32.0 °F 28.7 °F 21.2 °F 64% 30.16 in 10.0 mi NE 3.5 mph - N/A   Clear
3:39 AM 32.0 °F 26.4 °F 21.2 °F 64% 30.16 in 10.0 mi NE 5.8 mph - N/A   Clear
3:58 AM 28.4 °F 22.2 °F 17.6 °F 64% 30.16 in 10.0 mi ENE 5.8 mph - N/A   Clear
4:17 AM 28.4 °F 22.2 °F 19.4 °F 69% 30.17 in 10.0 mi NE 5.8 mph - N/A   Clear
4:37 AM 28.4 °F - 19.4 °F 69% 30.18 in 10.0 mi Calm Calm - N/A   Clear
4:56 AM 28.4 °F 24.6 °F 19.4 °F 69% 30.18 in 10.0 mi ENE 3.5 mph - N/A   Clear
5:15 AM 26.6 °F - 17.6 °F 69% 30.18 in 10.0 mi Calm Calm - N/A   Clear
5:35 AM 26.6 °F 22.6 °F 17.6 °F 69% 30.18 in 10.0 mi NNE 3.5 mph - N/A   Clear
5:54 AM 26.6 °F - 17.6 °F 69% 30.19 in 10.0 mi Calm Calm - N/A   Clear
6:13 AM 24.8 °F - 17.6 °F 74% 30.20 in 10.0 mi Calm Calm - N/A   Clear
6:32 AM 24.8 °F - 17.6 °F 74% 30.20 in 10.0 mi Calm Calm - N/A   Clear
6:52 AM 24.8 °F - 17.6 °F 74% 30.21 in 10.0 mi Calm Calm - N/A   Clear
7:11 AM 23.0 °F 18.4 °F 19.4 °F 86% 30.21 in 10.0 mi NNE 3.5 mph - N/A   Clear
7:50 AM 24.8 °F - 17.6 °F 74% 30.23 in 10.0 mi Calm Calm - N/A   Clear
8:09 AM 28.4 °F 24.6 °F 19.4 °F 69% 30.23 in 10.0 mi NNE 3.5 mph - N/A   Clear
8:28 AM 28.4 °F - 21.2 °F 74% 30.23 in 10.0 mi Calm Calm - N/A   Clear
8:48 AM 32.0 °F - 23.0 °F 69% 30.23 in 10.0 mi Calm Calm - N/A   Clear
9:07 AM 32.0 °F 27.5 °F 21.2 °F 64% 30.23 in 10.0 mi NE 4.6 mph - N/A   Clear
9:26 AM 32.0 °F - 21.2 °F 64% 30.22 in 10.0 mi Calm Calm - N/A   Clear
9:45 AM 32.0 °F 27.5 °F 21.2 °F 64% 30.22 in 10.0 mi ESE 4.6 mph - N/A   Clear
10:05 AM 32.0 °F 28.7 °F 21.2 °F 64% 30.23 in 10.0 mi ESE 3.5 mph - N/A   Clear
10:24 AM 32.0 °F 28.7 °F 21.2 °F 64% 30.21 in 10.0 mi East 3.5 mph - N/A   Clear
10:43 AM 35.6 °F - 21.2 °F 56% 30.20 in 10.0 mi Calm Calm - N/A   Clear
11:22 AM 35.6 °F 32.8 °F 19.4 °F 52% 30.18 in 10.0 mi East 3.5 mph - N/A   Clear
11:41 AM 35.6 °F 30.7 °F 19.4 °F 52% 30.16 in 10.0 mi SSE 5.8 mph - N/A   Clear
12:00 PM 37.4 °F 31.4 °F 21.2 °F 52% 30.15 in 10.0 mi SSW 8.1 mph - N/A   Clear
12:39 PM 37.4 °F 32.1 °F 19.4 °F 48% 30.14 in 10.0 mi SW 6.9 mph - N/A   Clear
12:58 PM 37.4 °F 31.4 °F 19.4 °F 48% 30.12 in 10.0 mi South 8.1 mph - N/A   Clear
1:18 PM 37.4 °F 31.4 °F 19.4 °F 48% 30.11 in 10.0 mi SW 8.1 mph - N/A   Clear
2:54 PM 41.0 °F 36.4 °F 21.2 °F 45% 30.09 in 10.0 mi SW 6.9 mph - N/A   Clear
3:13 PM 41.0 °F 36.4 °F 21.2 °F 45% 30.09 in 10.0 mi SW 6.9 mph - N/A   Clear
3:33 PM 41.0 °F 35.2 °F 23.0 °F 49% 30.08 in 10.0 mi SSW 9.2 mph - N/A   Clear
3:52 PM 41.0 °F 36.4 °F 23.0 °F 49% 30.09 in 10.0 mi South 6.9 mph - N/A   Clear
4:11 PM 39.2 °F 34.2 °F 23.0 °F 52% 30.08 in 10.0 mi South 6.9 mph - N/A   Clear
4:31 PM 37.4 °F 32.8 °F 23.0 °F 56% 30.07 in 10.0 mi SSE 5.8 mph - N/A   Clear
5:48 PM 35.6 °F 31.7 °F 26.6 °F 70% 30.05 in 10.0 mi SSE 4.6 mph - N/A   Clear
6:07 PM 35.6 °F 30.7 °F 26.6 °F 70% 30.05 in 10.0 mi South 5.8 mph - N/A   Clear
6:26 PM 35.6 °F 30.7 °F 28.4 °F 75% 30.04 in 10.0 mi SSE 5.8 mph - N/A   Clear
6:46 PM 37.4 °F 31.4 °F 30.2 °F 75% 30.03 in 10.0 mi SSE 8.1 mph - N/A   Clear
7:05 PM 37.4 °F 29.8 °F 30.2 °F 75% 30.03 in 10.0 mi South 11.5 mph 16.1 mph N/A   Clear
7:24 PM 37.4 °F 29.8 °F 30.2 °F 75% 30.02 in 10.0 mi South 11.5 mph 18.4 mph N/A   Clear
7:44 PM 37.4 °F 29.3 °F 32.0 °F 81% 30.00 in 10.0 mi South 12.7 mph 18.4 mph N/A   Clear
8:03 PM 41.0 °F 33.9 °F 32.0 °F 70% 29.98 in 10.0 mi South 12.7 mph 19.6 mph N/A   Clear
8:22 PM 41.0 °F 34.3 °F 32.0 °F 70% 29.98 in 10.0 mi South 11.5 mph 19.6 mph N/A   Clear
8:42 PM 41.0 °F 33.5 °F 32.0 °F 70% 29.97 in 10.0 mi South 13.8 mph 17.3 mph N/A   Clear
9:39 PM 41.0 °F 34.7 °F 32.0 °F 70% 29.97 in 10.0 mi South 10.4 mph 16.1 mph N/A   Clear
9:59 PM 41.0 °F 33.5 °F 30.2 °F 65% 29.96 in 10.0 mi South 13.8 mph 20.7 mph N/A   Clear
10:18 PM 41.0 °F 35.2 °F 30.2 °F 65% 29.96 in 10.0 mi South 9.2 mph 18.4 mph N/A   Clear
10:37 PM 41.0 °F 34.3 °F 30.2 °F 65% 29.95 in 10.0 mi South 11.5 mph 18.4 mph N/A   Clear
10:57 PM 41.0 °F 35.2 °F 30.2 °F 65% 29.97 in 10.0 mi South 9.2 mph 16.1 mph N/A   Clear
11:16 PM 41.0 °F 35.8 °F 30.2 °F 65% 29.97 in 10.0 mi SSW 8.1 mph - N/A   Clear
11:35 PM 41.0 °F 35.8 °F 30.2 °F 65% 29.98 in 10.0 mi SSW 8.1 mph - N/A   Clear
11:55 PM 41.0 °F 36.4 °F 30.2 °F 65% 29.98 in 10.0 mi SSW 6.9 mph - N/A   Clear